Location: Wien
(48.2082°N, 16.3738°E)
Time: 12:35:44
(UTC+02:00)

Tiros 1 despin weight - Pass Details

Date: 12 September 2024
Orbit: 573 x 615 km, 48.2° (Epoch: 06 October)

Event Time Altitude Azimuth Distance (km) Brightness Sun altitude
Rises 12:02:50 0° 277° (W) 2,882 ? 44.5°
Reaches altitude 10° 12:06:38 10° 246° (WSW) 1,963 ? 44.7°
Maximum altitude 12:08:12 12° 225° (SW) 1,850 ? 44.8°
Drops below altitude 10° 12:09:45 10° 205° (SSW) 1,950 ? 44.8°
Sets 12:13:30 0° 173° (S) 2,835 ? 45.0°
